Weather History for Hattiesburg, MS

Change the Weather History Date:

Thursday, August 28, 2014

  Actual Average Record
Temperature  
Mean Temperature 83 °F 81 °F  
Max Temperature 94 °F 92 °F 99 °F (1951)
Min Temperature 71 °F 70 °F 55 °F (1952)
Degree Days  
Heating Degree Days 0 0  
Month to date heating degree days 0 0  
Since 1 June heating degree days 0 0  
Since 1 July heating degree days 0 0  
Cooling Degree Days 18 16  
Month to date cooling degree days 502 466  
Year to date cooling degree days 1824 1826  
Since 1 June cooling degree days 1448 1411  
Growing Degree Days 32 (Base 50)    
Moisture  
Dew Point 70 °F    
Average Humidity 66    
Maximum Humidity 93    
Minimum Humidity 39    
Precipitation  
Precipitation T in 0.15 in 1.57 in (1991)
Month to date precipitation 1.03 4.28  
Year to date precipitation 36.71 41.71  
Sea Level Pressure  
Sea Level Pressure 29.98 in    
Wind  
Wind Speed 3 mph (SE)    
Max Wind Speed 14 mph    
Max Gust Speed 17 mph    
Visibility 10 miles    
Events      
T = Trace of Precipitation, MM = Missing Value Source: NWS Daily Summary

Daily Weather History Graph

Daily Weather History Graph

Search for Another Location

Airport:

Trip Planner

Search our weather history database for the weather conditions in past years. The results will help you decide how hot, cold, wet, or windy it might be!

Date:

Astronomy

Aug. 28, 2014 Rise Set
Actual Time 6:30 AM CDT 7:25 PM CDT
Civil Twilight 6:05 AM CDT 7:50 PM CDT
Nautical Twilight 5:36 AM CDT 8:19 PM CDT
Astronomical Twilight 5:06 AM CDT 8:49 PM CDT
Moon 9:09 AM CDT 9:04 PM CDT
Length of Visible Light 13h 44m
Length of Day
12h 54m
Waxing Crescent, 9% of the Moon is Illuminated
Aug 28
Waxing Crescent
Sep 2
First Quarter
Sep 8
Full
Sep 15
Last Quarter
Sep 24
New

Hourly Weather History & Observations

Time (CDT) Temp. Heat Index Dew Point Humidity Pressure Visibility Wind Dir Wind Speed Gust Speed Precip Events Conditions
12:53 AM 75.0 °F - 71.1 °F 87% 30.01 in 10.0 mi Calm Calm - N/A   Clear
1:53 AM 73.0 °F - 71.1 °F 93% 30.01 in 9.0 mi Calm Calm - N/A   Clear
2:53 AM 73.0 °F - 71.1 °F 93% 30.00 in 9.0 mi Calm Calm - N/A   Clear
3:53 AM 72.0 °F - 70.0 °F 93% 29.99 in 10.0 mi Calm Calm - N/A   Clear
4:53 AM 72.0 °F - 70.0 °F 93% 29.99 in 10.0 mi Calm Calm - N/A   Clear
5:53 AM 72.0 °F - 70.0 °F 93% 30.00 in 10.0 mi Calm Calm - N/A   Clear
6:53 AM 72.0 °F - 69.1 °F 91% 30.01 in 9.0 mi Calm Calm - N/A   Clear
7:53 AM 73.9 °F - 70.0 °F 87% 30.02 in 10.0 mi Calm Calm - N/A   Clear
8:53 AM 79.0 °F - 72.0 °F 79% 30.02 in 10.0 mi Calm Calm - N/A   Clear
10:53 AM 87.1 °F 92.8 °F 71.1 °F 59% 30.03 in 10.0 mi East 4.6 mph - N/A   Clear
11:53 AM 89.1 °F 94.1 °F 70.0 °F 53% 30.03 in 10.0 mi SE 5.8 mph - N/A   Clear
12:53 PM 90.0 °F 94.5 °F 69.1 °F 50% 30.01 in 10.0 mi WSW 6.9 mph - N/A   Clear
1:53 PM 93.9 °F 96.1 °F 64.9 °F 38% 29.98 in 10.0 mi Calm Calm - N/A   Clear
2:53 PM 91.9 °F 93.3 °F 64.0 °F 39% 29.96 in 10.0 mi ENE 3.5 mph - N/A   Overcast
3:53 PM 91.0 °F 93.0 °F 64.9 °F 42% 29.94 in 10.0 mi East 5.8 mph - N/A   Overcast
4:53 PM 93.0 °F 95.9 °F 66.0 °F 41% 29.93 in 10.0 mi SE 10.4 mph - 0.00 in   Scattered Clouds
5:53 PM 89.1 °F 94.1 °F 70.0 °F 53% 29.93 in 10.0 mi South 8.1 mph - N/A   Clear
6:53 PM 87.1 °F 91.3 °F 69.1 °F 55% 29.93 in 10.0 mi South 6.9 mph - N/A   Partly Cloudy
7:53 PM 82.9 °F 87.5 °F 71.1 °F 67% 29.94 in 10.0 mi SE 3.5 mph - N/A   Partly Cloudy
8:53 PM 81.0 °F 85.2 °F 72.0 °F 74% 29.96 in 10.0 mi Calm Calm - N/A   Clear
9:53 PM 79.0 °F - 72.0 °F 79% 29.98 in 10.0 mi Calm Calm - N/A   Clear
10:53 PM 77.0 °F - 72.0 °F 84% 29.98 in 10.0 mi Calm Calm - N/A   Partly Cloudy
11:53 PM 75.9 °F - 72.0 °F 87% 29.99 in 10.0 mi SE 3.5 mph - N/A   Clear